Regional Weather Roundup
Issued by NWS Charleston, WV

Home | Current Version | Previous Version | Text Only | Print | Product List | Glossary Off
Versions: 1 2 3 4 5 6 7 8 9 10 11 12 13 14 15 16 17 18 19 20 21 22 23 24 25 26 27

000
ASUS41 KRLX 260610
RWRRLX
West Virginia Regional Weather Roundup
National Weather Service Charleston WV
200 AM EDT WED JUL 26 2017

Note: "fair" indicates few or no clouds below 12,000 feet with no
significant weather and/or obstructions to visibility.

WVZ003-260700-
Northern Panhandle of West Virginia

CITY           SKY/WX    TMP DP  RH WIND       PRES   REMARKS
WHEELING       CLEAR     58  56  93 CALM      30.21F FOG
$$

WVZ009-260700-
Northwest West Virginia

CITY           SKY/WX    TMP DP  RH WIND       PRES   REMARKS
PARKERSBURG    FOG       59  57  93 CALM      30.22F VSB 1/4
$$

WVZ006-260700-
Western West Virginia

CITY           SKY/WX    TMP DP  RH WIND       PRES   REMARKS
HUNTINGTON     CLEAR     63  58  83 E3        30.18F
$$

WVZ015-260700-
West Central West Virginia

CITY           SKY/WX    TMP DP  RH WIND       PRES   REMARKS
CHARLESTON     CLEAR     61  58  90 N3        30.18F
$$

WVZ022-031-260700-
North Central West Virginia

CITY           SKY/WX    TMP DP  RH WIND       PRES   REMARKS
CLARKSBURG     CLEAR     56  55  97 CALM      30.20F FOG
MORGANTOWN     CLEAR     59  56  89 CALM      30.23F
$$

WVZ025-035-042-045-260700-
Southern West Virginia

CITY           SKY/WX    TMP DP  RH WIND       PRES   REMARKS
BECKLEY        CLEAR     60  56  86 CALM      30.24S
LOGAN            N/A     64  61  88 CALM      30.20S
BLUEFIELD      CLEAR     64  55  72 NE3       30.25F
LEWISBURG      CLEAR     57  55  93 CALM      30.25R
$$

WVZ047-260700-
Northern Mountains of West Virginia

CITY           SKY/WX    TMP DP  RH WIND       PRES   REMARKS
ELKINS         MOCLDY    54  52  93 CALM      30.26F FOG
$$

WVZ052-260700-
Eastern Panhandle of West Virginia

CITY           SKY/WX    TMP DP  RH WIND       PRES   REMARKS
MARTINSBURG    CLEAR     59  58  96 CALM      30.21S FOG
PETERSBURG     CLEAR     60  58  94 CALM      30.25S
$$




USA.gov is the U.S. government's official web portal to all federal, state and local government web resources and services.